Houston Hull, TX

9:14 PM CST on December 05, 2019 (GMT -0600)
Sugar Land Municipal-Hull

Weather History for KSGR - October, 2019

Change the Weather History Date:

Wednesday, October 2, 2019

  Actual Average Record
Temperature  
Mean Temperature 82 °F -  
Max Temperature 91 °F 86 °F 94 °F (1948)
Min Temperature 73 °F 62 °F 48 °F (1984)
Cooling Degree Days 17    
Growing Degree Days 32 (Base 50)    
Moisture  
Dew Point 74 °F    
Average Humidity 78    
Maximum Humidity 97    
Minimum Humidity 55    
Precipitation  
Precipitation 0.00 in - - ()
Sea Level Pressure  
Sea Level Pressure 29.96 in    
Wind  
Wind Speed 5 mph (ESE)    
Max Wind Speed 14 mph    
Max Gust Speed -    
Visibility 10 miles    
Events      
Averages and records for this station are not official NWS values.
T = Trace of Precipitation, MM = Missing Value Source: NWS Daily Summary

Daily Weather History Graph

Daily Weather History Graph

Search for Another Location

Airport or City:

Astronomy

Oct. 02, 2019 Rise Set
Actual Time 7:16 AM CDT 7:07 PM CDT
Civil Twilight 6:52 AM CDT 7:30 PM CDT
Nautical Twilight 6:24 AM CDT 7:58 PM CDT
Astronomical Twilight 5:57 AM CDT 8:26 PM CDT
Moon 11:25 AM CDT (10/2) 10:21 PM CDT (10/2)
Length of Visible Light 12h 38m
Length of Day
11h 50m
Waxing Crescent, 20% of the Moon is Illuminated
Oct 2
Waxing Crescent
Oct 5
First Quarter
Oct 13
Full
Oct 21
Last Quarter
Oct 27
New

Hourly Weather History & Observations

Time (CDT) Temp. Heat Index Dew Point Humidity Pressure Visibility Wind Dir Wind Speed Gust Speed Precip Events Conditions
12:53 AM 79.0 °F - 75.0 °F 88% 29.96 in 10.0 mi SE 4.6 mph - N/A   Clear
1:53 AM 78.1 °F - 75.0 °F 90% 29.96 in 10.0 mi ESE 4.6 mph - N/A   Clear
2:53 AM 75.9 °F - 75.0 °F 97% 29.96 in 10.0 mi Calm Calm - N/A   Clear
3:53 AM 75.0 °F - 73.9 °F 96% 29.95 in 10.0 mi Calm Calm - N/A   Clear
4:53 AM 75.0 °F - 73.9 °F 96% 29.96 in 10.0 mi NNE 3.5 mph - N/A   Clear
5:53 AM 75.0 °F - 73.9 °F 96% 29.97 in 10.0 mi NNE 3.5 mph - N/A   Partly Cloudy
6:53 AM 73.9 °F - 73.0 °F 97% 29.98 in 10.0 mi Calm Calm - N/A   Clear
7:43 AM 78.1 °F - 75.9 °F 93% 29.98 in 10.0 mi NE 3.5 mph - N/A   Mostly Cloudy
7:53 AM 78.1 °F - 75.9 °F 93% 29.99 in 10.0 mi NNE 4.6 mph - N/A   Scattered Clouds
8:53 AM 82.0 °F 90.2 °F 77.0 °F 85% 29.99 in 10.0 mi ENE 4.6 mph - N/A   Clear
9:53 AM 84.9 °F 95.3 °F 77.0 °F 77% 30.00 in 10.0 mi East 8.1 mph - N/A   Scattered Clouds
10:53 AM 87.1 °F 97.3 °F 75.9 °F 69% 30.01 in 10.0 mi SE 6.9 mph - N/A   Partly Cloudy
11:53 AM 89.1 °F 99.1 °F 75.0 °F 63% 30.00 in 10.0 mi ESE 5.8 mph - N/A   Partly Cloudy
12:53 PM 91.0 °F 100.4 °F 73.9 °F 57% 29.99 in 10.0 mi East 9.2 mph - N/A   Scattered Clouds
1:53 PM 91.0 °F 100.4 °F 73.9 °F 57% 29.96 in 10.0 mi ESE 10.4 mph - N/A   Scattered Clouds
2:53 PM 90.0 °F 97.9 °F 73.0 °F 57% 29.94 in 10.0 mi SE 11.5 mph - N/A   Scattered Clouds
3:53 PM 91.0 °F 100.4 °F 73.9 °F 57% 29.93 in 10.0 mi ESE 11.5 mph - N/A   Scattered Clouds
4:53 PM 90.0 °F 97.9 °F 73.0 °F 57% 29.92 in 10.0 mi SE 13.8 mph - N/A   Clear
5:53 PM 89.1 °F 95.0 °F 71.1 °F 55% 29.91 in 10.0 mi SE 9.2 mph - N/A   Clear
6:53 PM 86.0 °F 93.0 °F 73.0 °F 65% 29.92 in 10.0 mi ESE 10.4 mph - N/A   Clear
7:53 PM 84.0 °F 91.2 °F 73.9 °F 72% 29.93 in 10.0 mi ESE 6.9 mph - N/A   Clear
8:53 PM 82.9 °F 89.4 °F 73.9 °F 74% 29.94 in 10.0 mi ESE 6.9 mph - N/A   Clear
9:53 PM 81.0 °F 86.7 °F 75.0 °F 82% 29.96 in 10.0 mi ESE 8.1 mph - N/A   Clear
10:53 PM 80.1 °F 85.1 °F 75.0 °F 85% 29.97 in 10.0 mi East 4.6 mph - N/A   Clear
11:53 PM 80.1 °F 85.1 °F 75.0 °F 85% 29.98 in 10.0 mi ESE 3.5 mph - N/A   Clear